Lid_Strength_Index
4 6 8 7 6 6 7 8 8 7 6 6 7 6 6 4 4 5 5 5 5 5 3 3 2 2 2 2 2 1 2 1 1 1 1 1 2 1 0 -0 -1 -1 -0 -1
6 8 6 6 7 6 7 8 8 7 6 6 7 7 6 5 5 5 5 6 5 5 4 3 3 4 4 4 4 4 2 1 1 1 1 1 1 1 0 0 -0 -0 -0 -1
7 7 6 6 6 7 7 8 8 8 7 6 7 8 7 5 5 5 5 5 5 5 5 4 3 4 4 5 5 4 4 3 3 1 1 1 1 1 1 1 1 0 -0 -0
6 5 7 7 7 7 9 6 7 8 8 10 7 11 8 7 7 6 6 5 5 5 4 4 5 4 4 4 5 5 5 5 5 4 2 1 2 3 2 1 1 1 0 -0
7 7 7 7 7 6 8 6 7 7 8 9 9 10 8 7 8 7 6 6 5 4 4 4 5 5 4 4 4 5 5 5 6 6 5 5 4 2 1 1 1 1 0 -0
6 4 5 6 5 6 5 7 7 7 8 12 9 10 10 9 8 7 6 6 5 4 4 3 3 3 3 4 5 4 5 6 6 5 6 5 5 5 5 3 3 3 2 3
7 7 5 5 7 6 6 8 12 12 12 13 8 10 11 8 7 6 7 6 5 4 4 4 3 4 3 3 4 4 5 5 4 6 6 5 6 6 6 5 3 3 3 3
9 10 7 6 7 8 8 8 11 15 14 12 9 11 11 6 5 5 5 5 5 4 4 4 3 3 3 3 3 3 3 2 2 3 4 4 5 5 5 5 3 3 2 1
10 10 6 6 6 6 8 9 7 11 10 12 10 9 8 6 6 6 5 5 5 5 4 4 3 2 3 2 2 2 2 2 1 1 1 2 3 4 4 3 2 1 2 2
7 10 7 6 6 6 7 6 10 10 15 16 12 11 13 9 8 6 6 6 5 4 4 3 3 3 2 2 2 2 2 2 2 3 2 2 2 2 2 1 2 2 1 1
6 8 9 7 8 8 8 9 8 9 10 14 15 12 7 8 7 7 6 5 5 5 4 4 3 2 2 2 3 2 3 3 2 2 2 2 3 2 1 2 2 2 2 1
6 8 11 9 6 6 7 8 8 12 13 11 12 12 6 6 6 5 5 4 4 4 4 3 3 3 2 2 2 2 2 3 2 2 2 2 1 2 1 1 1 1 2 2
7 9 13 11 8 7 9 8 7 8 9 12 15 13 5 5 5 5 5 4 4 5 4 3 3 3 3 2 2 2 2 2 2 2 2 1 2 2 2 2 0 1 1 2
5 8 10 13 11 9 10 9 8 8 12 11 11 10 8 7 6 5 4 4 4 3 4 4 4 3 3 2 2 2 2 2 2 2 2 1 1 1 1 2 2 1 1 1
6 11 9 9 8 8 8 9 8 9 9 11 9 9 7 6 6 5 4 4 4 4 4 4 4 4 3 3 2 1 1 2 1 2 2 1 1 1 2 2 2 2 2 1
6 10 9 11 9 8 9 8 9 9 9 9 8 9 6 5 4 5 4 4 4 4 4 3 4 4 3 3 2 2 1 1 1 1 1 1 1 0 1 0 0 1 2 1
8 9 11 14 9 9 12 9 9 9 8 8 10 7 5 6 5 5 5 4 4 5 5 4 4 4 3 2 1 2 1 1 1 1 1 1 1 1 0 -0 0 1 1 0
8 10 10 13 11 17 9 7 7 8 7 7 7 6 5 5 4 4 4 4 5 4 4 3 3 2 2 1 1 1 1 1 1 1 1 1 1 1 0 0 1 1 0 1
6 8 12 14 14 11 9 8 8 9 9 6 6 6 5 5 4 6 4 3 4 4 3 3 2 2 2 2 1 1 2 2 2 2 1 1 1 1 1 1 1 1 1 1
6 6 10 12 15 16 9 6 5 5 11 6 6 6 6 5 8 7 4 4 4 3 2 3 2 2 2 2 1 1 2 2 2 1 1 1 0 1 1 1 1 1 1 1
10 10 12 13 14 11 7 5 5 12 12 6 5 5 6 7 6 4 3 4 3 3 3 2 2 2 2 1 1 2 2 2 1 1 0 0 0 1 0 0 0 1 1 1
11 13 13 11 14 16 6 6 9 7 5 5 5 5 5 4 4 4 3 4 3 4 3 3 2 2 1 1 1 2 2 1 1 1 1 1 0 1 1 0 1 1 1 1
11 8 10 11 11 6 5 5 4 4 5 4 4 4 4 4 4 4 4 4 3 3 3 2 3 2 2 1 0 1 1 1 1 1 1 1 1 1 1 1 1 1 2 2
7 5 9 9 6 6 5 4 4 3 4 3 3 4 4 4 4 4 4 4 3 3 3 3 3 3 2 1 1 1 2 1 1 1 1 1 1 1 1 1 1 1 2 3
7 6 8 8 6 5 5 4 3 4 3 4 4 3 3 3 4 4 4 3 3 3 2 3 3 3 3 2 2 2 2 1 1 1 1 1 1 1 1 1 2 1 2 3
6 7 8 9 5 6 5 4 3 4 4 4 3 3 3 3 4 4 4 3 3 3 3 3 2 3 3 3 3 2 1 1 2 2 2 2 2 1 1 1 2 4 4 5